Simultaneous Nadir Overpasses (SNOs) Predictions

Prediction of SNOs between GOES-14 and NPP Satellite Orbit:

Table of predicted SNOs for the next 14.0 days since TLE Epoch: 9/24/2022
Index Date Time (GOES-14) GOES-14 Lat,Lon NPP Lat,Lon Distance(km) Time Diff (sec)
1 09/24/2022 20:28:04 -0.32,-104.43 -0.66,-105.86 163.46 80
2 09/25/2022 20:12:00 -0.33,-104.44 0.35,-101.33 353.98 80
3 09/27/2022 08:33:48 0.30,-104.38 0.81,-106.60 253.11 80
4 09/28/2022 08:12:24 0.32,-104.36 -0.20,-102.07 261.50 80
5 09/29/2022 20:34:21 -0.29,-104.38 -0.95,-107.38 341.19 80
6 09/30/2022 20:18:16 -0.30,-104.39 0.07,-102.85 175.86 80
7 10/02/2022 08:40:05 0.27,-104.37 1.09,-108.12 427.37 80
8 10/03/2022 08:18:39 0.29,-104.34 0.14,-103.58 86.68 80
9 10/05/2022 20:21:52 -0.27,-104.32 -0.25,-104.36 4.92 80
